K5TCS Weather Reports


Display with metric or nautical units.
time (UTC)temp
F
wind
direction
speed
MPH
gust
MPH
rain 1hr
in
rain 24hr
in
rain mn
in
humidity
%
barometer
mb
20260901002015 83 90 2.0 11.0 0.00 0.00 0.00 36 1024.5
20260901001016 83 90 2.0 9.0 0.00 0.00 0.00 36 1024.5
20260901000035 84 135 1.0 6.0 0.00 0.00 0.00 35 1024.8
20260831235016 84 90 1.0 9.0 0.00 0.00 0.00 34 1024.5
20260831234015 84 113 2.0 8.0 0.00 0.00 0.00 34 1024.1
20260831233015 84 113 1.0 6.0 0.00 0.00 0.00 35 1024.3
20260831232015 83 135 1.0 13.0 0.00 0.00 0.00 36 1024.0
20260831231015 82 90 3.0 9.0 0.00 0.00 0.00 36 1024.1
20260831230017 83 113 2.0 10.0 0.00 0.00 0.00 36 1024.1
20260831225017 83 90 2.0 10.0 0.00 0.00 0.00 36 1023.9
20260831224037 82 113 4.0 12.0 0.00 0.00 0.00 37 1024.1
20260831223017 81 113 2.0 10.0 0.00 0.00 0.00 38 1024.2
20260831222017 81 90 3.0 12.0 0.00 0.00 0.00 37 1024.4
20260831221017 83 113 3.0 11.0 0.00 0.00 0.00 36 1024.9
20260831220017 84 90 1.0 9.0 0.00 0.00 0.00 35 1024.9
20260831215017 83 45 3.0 11.0 0.00 0.00 0.00 36 1025.2
20260831214017 84 45 4.0 17.0 0.00 0.00 0.00 34 1025.2
20260831213017 84 135 2.0 12.0 0.00 0.00 0.00 33 1025.3
20260831212037 83 135 2.0 12.0 0.00 0.00 0.00 34 1025.6
20260831211057 82 90 3.0 10.0 0.00 0.00 0.00 34 1025.7
20260831210017 83 68 4.0 12.0 0.00 0.00 0.00 33 1026.3
20260831205017 85 90 2.0 7.0 0.00 0.00 0.00 32 1026.7
20260831204017 84 45 3.0 12.0 0.00 0.00 0.00 32 1025.9
20260831203017 84 90 4.0 12.0 0.00 0.00 0.00 32 1026.2
20260831202017 85 68 2.0 7.0 0.00 0.00 0.00 31 1026.6
20260831201017 84 113 1.0 7.0 0.00 0.00 0.00 31 1027.0
20260831200017 84 90 4.0 12.0 0.00 0.00 0.00 31 1027.2
20260831195017 83 45 3.0 10.0 0.00 0.00 0.00 32 1026.7
20260831194017 84 45 2.0 11.0 0.00 0.00 0.00 32 1027.4
20260831193017 84 90 4.0 11.0 0.00 0.00 0.00 33 1027.1
20260831192017 83 90 1.0 9.0 0.00 0.00 0.00 32 1027.0
20260831191037 83 0.0 4.0 0.00 0.00 0.00 29 1027.0
20260831190017 84 23 1.0 9.0 0.00 0.00 0.00 28 1026.9
20260831185037 86 113 2.0 10.0 0.00 0.00 0.00 28 1027.4
20260831184017 87 113 3.0 11.0 0.00 0.00 0.00 28 1028.6
20260831183017 86 68 2.0 9.0 0.00 0.00 0.00 30 1028.2
20260831182016 85 135 2.0 12.0 0.00 0.00 0.00 30 1028.4
20260831181016 86 90 5.0 14.0 0.00 0.00 0.00 29 1028.1
20260831180017 87 135 2.0 10.0 0.00 0.00 0.00 30 1028.6
20260831175036 86 90 1.0 6.0 0.00 0.00 0.00 30 1028.2
20260831174016 86 113 3.0 10.0 0.00 0.00 0.00 27 1028.4
20260831173057 86 68 3.0 11.0 0.00 0.00 0.00 27 1028.5
20260831172016 85 135 2.0 7.0 0.00 0.00 0.00 28 1027.9
20260831171017 84 135 2.0 12.0 0.00 0.00 0.00 30 1028.2
20260831170016 84 113 2.0 9.0 0.00 0.00 0.00 35 1028.5
20260831165057 83 180 1.0 7.0 0.00 0.00 0.00 36 1028.5
20260831164016 83 113 2.0 11.0 0.00 0.00 0.00 36 1028.6
20260831163017 83 135 1.0 6.0 0.00 0.00 0.00 38 1028.5
20260831162016 82 338 1.0 4.0 0.00 0.00 0.00 37 1028.6
20260831161016 81 0.0 2.0 0.00 0.00 0.00 38 1028.6
20260831160016 81 0.0 3.0 0.00 0.00 0.00 38 1028.5
20260831155036 80 0.0 3.0 0.00 0.00 0.00 39 1028.0
20260831154036 80 0.0 3.0 0.00 0.00 0.00 40 1029.1
20260831153016 79 0.0 3.0 0.00 0.00 0.00 40 1029.3
20260831152016 78 0.0 3.0 0.00 0.00 0.00 40 1028.9
20260831151036 77 0.0 3.0 0.00 0.00 0.00 41 1029.8
20260831150016 76 0.0 2.0 0.00 0.00 0.00 41 1029.4
20260831145016 74 0.0 3.0 0.00 0.00 0.00 42 1029.1
20260831144036 73 0.0 3.0 0.00 0.00 0.00 42 1029.7
20260831143016 72 0.0 3.0 0.00 0.00 0.00 42 1029.2
20260831142036 69 0.0 2.0 0.00 0.00 0.00 42 1028.8
20260831141016 66 0.0 3.0 0.00 0.00 0.00 43 1028.6
20260831140016 63 0.0 0.0 0.00 0.00 0.00 44 1027.6
20260831135016 61 0.0 1.0 0.00 0.00 0.00 43 1027.2
20260831134016 59 0.0 0.0 0.00 0.00 0.00 42 1027.0
20260831133016 58 0.0 3.0 0.00 0.00 0.00 42 1026.9
20260831132016 58 0.0 0.0 0.00 0.00 0.00 42 1026.3
20260831131016 57 0.0 0.0 0.00 0.00 0.00 42 1026.7
20260831130016 57 0.0 0.0 0.00 0.00 0.00 42 1026.7
20260831125016 57 0.0 1.0 0.00 0.00 0.00 43 1026.6
20260831124056 57 0.0 3.0 0.00 0.00 0.00 43 1026.5
20260831123016 58 0.0 1.0 0.00 0.00 0.00 44 1026.8
20260831122016 59 0.0 3.0 0.00 0.00 0.00 45 1026.8
20260831121036 58 0.0 3.0 0.00 0.00 0.00 44 1027.3
20260831120016 58 0.0 0.0 0.00 0.00 0.00 43 1027.2
20260831115015 57 0.0 0.0 0.00 0.00 0.00 44 1026.8
20260831114016 58 0.0 3.0 0.00 0.00 0.00 45 1027.1
20260831113016 58 0.0 4.0 0.00 0.00 0.00 44 1027.1
20260831112015 57 0.0 0.0 0.00 0.00 0.00 44 1027.0
20260831111016 56 0.0 0.0 0.00 0.00 0.00 45 1026.6
20260831110015 57 0.0 0.0 0.00 0.00 0.00 46 1026.7
20260831105015 57 0.0 0.0 0.00 0.00 0.00 46 1027.1
20260831104015 56 0.0 0.0 0.00 0.00 0.00 47 1026.6
20260831103015 56 0.0 0.0 0.00 0.00 0.00 48 1026.4
20260831102016 57 0.0 0.0 0.00 0.00 0.00 49 1026.8
20260831101015 57 0.0 0.0 0.00 0.00 0.00 49 1026.4
20260831100015 57 0.0 3.0 0.00 0.00 0.00 50 1026.5
20260831095015 57 0.0 2.0 0.00 0.00 0.00 51 1026.4
20260831094037 57 0.0 1.0 0.00 0.00 0.00 51 1026.4
20260831093017 57 0.0 1.0 0.00 0.00 0.00 52 1026.5
20260831092037 58 0.0 2.0 0.00 0.00 0.00 52 1026.5
20260831091017 57 0.0 0.0 0.00 0.00 0.00 52 1026.3
20260831090038 57 0.0 0.0 0.00 0.00 0.00 53 1026.4
20260831085037 58 0.0 1.0 0.00 0.00 0.00 53 1027.0
20260831084018 59 0.0 4.0 0.00 0.00 0.00 52 1026.9
20260831083017 58 0.0 2.0 0.00 0.00 0.00 52 1026.7
20260831082038 57 0.0 0.0 0.00 0.00 0.00 53 1026.4
20260831081017 57 0.0 0.0 0.00 0.00 0.00 53 1026.3
20260831080017 58 0.0 0.0 0.00 0.00 0.00 54 1026.6
20260831075037 59 0.0 0.0 0.00 0.00 0.00 53 1027.1
20260831074017 60 0.0 0.0 0.00 0.00 0.00 51 1027.7
20260831073017 60 0.0 2.0 0.00 0.00 0.00 52 1027.4
20260831072017 59 0.0 1.0 0.00 0.00 0.00 53 1027.4
20260831071017 60 0.0 2.0 0.00 0.00 0.00 52 1027.8
20260831070017 60 0.0 2.0 0.00 0.00 0.00 51 1027.8
20260831065017 61 0.0 4.0 0.00 0.00 0.00 51 1027.7
20260831064017 59 0.0 3.0 0.00 0.00 0.00 52 1028.3
20260831063157 62 0.0 2.0 0.00 0.00 0.00 50 1028.8
20260831062017 63 0.0 3.0 0.00 0.00 0.00 47 1029.2
20260831061017 62 0.0 2.0 0.00 0.00 0.00 49 1028.3
20260831060017 59 0.0 0.0 0.00 0.00 0.00 52 1027.8
20260831055057 59 0.0 0.0 0.00 0.00 0.00 52 1027.8
20260831054037 59 0.0 0.0 0.00 0.00 0.00 52 1027.9
20260831053036 59 0.0 0.0 0.00 0.00 0.00 52 1028.0
20260831052016 60 0.0 0.0 0.00 0.00 0.00 52 1028.5
20260831051057 60 0.0 0.0 0.00 0.00 0.00 52 1028.0
20260831050017 60 0.0 0.0 0.00 0.00 0.00 53 1028.0
20260831045016 61 0.0 0.0 0.00 0.00 0.00 53 1028.0
20260831044057 61 0.0 0.0 0.00 0.00 0.00 52 1027.3
20260831043036 61 0.0 0.0 0.00 0.00 0.00 53 1027.3
20260831042016 62 0.0 0.0 0.00 0.00 0.00 53 1027.5
20260831041016 62 0.0 0.0 0.00 0.00 0.00 52 1027.1
20260831040016 63 0.0 0.0 0.00 0.00 0.00 52 1027.6
20260831035036 63 0.0 0.0 0.00 0.00 0.00 53 1027.5
20260831034016 63 0.0 0.0 0.00 0.00 0.00 53 1026.2
20260831033016 64 0.0 0.0 0.00 0.00 0.00 54 1026.0
20260831032016 66 0.0 0.0 0.00 0.00 0.00 54 1026.2
20260831031016 67 0.0 0.0 0.00 0.00 0.00 51 1023.9
20260831030016 68 0.0 0.0 0.00 0.00 0.00 52 1024.5
20260831025016 69 0.0 0.0 0.00 0.00 0.00 51 1024.3
20260831024016 72 0.0 0.0 0.00 0.00 0.00 46 1023.7
20260831023016 72 0.0 0.0 0.00 0.00 0.00 44 1023.9
20260831022016 73 0.0 0.0 0.00 0.00 0.00 43 1023.7
20260831021016 73 0.0 0.0 0.00 0.00 0.00 44 1023.3
20260831020016 74 0.0 0.0 0.00 0.00 0.00 43 1023.2
20260831015016 75 0.0 0.0 0.00 0.00 0.00 40 1023.5
20260831014016 76 0.0 2.0 0.00 0.00 0.00 39 1023.4
20260831013016 77 0.0 0.0 0.00 0.00 0.00 37 1023.8
20260831012016 77 0.0 0.0 0.00 0.00 0.00 37 1023.8
20260831011016 78 0.0 2.0 0.00 0.00 0.00 37 1023.8
20260831010016 78 113 1.0 6.0 0.00 0.00 0.00 37 1023.8
20260831005016 79 0.0 2.0 0.00 0.00 0.00 37 1023.8
20260831004016 79 0.0 0.0 0.00 0.00 0.00 37 1024.3
20260831003016 79 0.0 0.0 0.00 0.03 0.00 36 1024.2